• Processing (Info)

  • MPEC 2014-H47 : 2014 HT46

    The following Minor Planet Electronic Circular may be linked-to from your own Web pages, but must not otherwise be redistributed electronically.

    A form allowing access to any MPEC is at the bottom of this page.


    Read MPEC 2014-H46 Read MPEC 2014-H48


    M.P.E.C. 2014-H47                                Issued 2014 Apr. 26, 14:10 UT
    
         The Minor Planet Electronic Circulars contain information on unusual
             minor planets and routine data on comets.  They are published
       on behalf of Commission 20 of the International Astronomical Union by the
              Minor Planet Center, Smithsonian Astrophysical Observatory,
                              Cambridge, MA 02138, U.S.A.
    
                 Prepared using the Tamkin Foundation Computer Network
    
                                  MPC@CFA.HARVARD.EDU
                URL https://www.minorplanetcenter.net/    ISSN 1523-6714
    
                                       2014 HT46
    
    Observations:
         K14H46T* C2014 04 24.41466 14 27 36.04 -03 22 51.9          19.6 VqEH047G96
         K14H46T  C2014 04 24.42124 14 27 39.33 -03 22 30.0          19.6 VqEH047G96
         K14H46T  C2014 04 24.42782 14 27 42.64 -03 22 08.2          19.6 VqEH047G96
         K14H46T  C2014 04 24.43442 14 27 45.96 -03 21 45.9          19.9 VqEH047G96
         K14H46T  C2014 04 24.48511 14 28 12.28 -03 18 56.6          19.9 VqEH047G96
         K14H46T  C2014 04 24.48618 14 28 12.88 -03 18 52.7          20.1 VqEH047G96
         K14H46T  C2014 04 24.48724 14 28 13.43 -03 18 48.7          20.0 VqEH047G96
         K14H46T  C2014 04 24.48832 14 28 14.03 -03 18 45.2          19.9 VqEH047G96
         K14H46T KC2014 04 25.27149 14 36 28.78 -02 33 24.9          19.7 RqEH047H36
         K14H46T KC2014 04 25.27666 14 36 31.69 -02 33 06.5          19.8 RqEH047H36
         K14H46T KC2014 04 25.28116 14 36 34.22 -02 32 49.0          19.7 RqEH047H36
         K14H46T  C2014 04 26.32054 14 48 52.52 -01 22 08.7          19.6 VqEH047G96
         K14H46T  C2014 04 26.32103 14 48 52.81 -01 22 06.4          19.8 VqEH047G96
         K14H46T  C2014 04 26.32153 14 48 53.18 -01 22 04.1          19.4 VqEH047G96
    
    Observer details:
    G96 Mt. Lemmon Survey.  Observers E. J. Christensen, R. J. Sanders.  Measurers
        E. J. Christensen, A. R. Gibbs, A. D. Grauer, R. E. Hill, J. A. Johnson,
        R. A. Kowalski, S. M. Larson, R. J. Sanders, F. C. Shelly.  1.5-m
        reflector + CCD.
    H36 Sandlot Observatory, Scranton.  Observer G. Hug.  0.56-m reflector + CCD.
    
    Orbital elements:
    2014 HT46                                                Earth MOID = 0.0128 AU
    Epoch 2014 May 23.0 TT = JDT 2456800.5                  MPC
    M 351.29810              (2000.0)            P               Q
    n   0.67605931     Peri.   58.52899     -0.19329248     +0.98109430
    a   1.2857194      Node   200.33261     -0.90928462     -0.18279963
    e   0.2355857      Incl.    1.58167     -0.36856410     -0.06354731
    P   1.46           H   26.4           G   0.15           U   7
    Residuals in seconds of arc
    140424 G96  0.3+  0.3-    140424 G96  0.0   0.0     140425 H36  0.4-  0.4+
    140424 G96  0.2+  0.2-    140424 G96  0.2-  0.4+    140426 G96  0.2+  0.2-
    140424 G96  0.2+  0.2-    140424 G96  0.1+  0.2+    140426 G96  0.3-  0.1-
    140424 G96  0.1-  0.1+    140425 H36  0.2+  0.6+    140426 G96  0.2+  0.0
    140424 G96  0.4-  0.3-    140425 H36  0.1-  0.3-
    
    Ephemeris:
    2014 HT46                a,e,i = 1.29, 0.24, 2                   q = 0.9828
    Date    TT    R. A. (2000) Decl.     Delta      r     Elong.  Phase     V
    2014 03 27    13 06 18.0 -10 32 46   0.1345  1.1288   166.4    12.0    23.0
    ...
    2014 04 11    13 25 53.2 -09 07 07   0.07710 1.0790   177.6     2.2    21.3
    ...
    2014 04 19    13 51 14.5 -06 47 05   0.05114 1.0552   175.6     4.2    20.4
    ...
    2014 04 25    14 33 33.9 -02 47 07   0.03385 1.0390   168.1    11.5    19.8
    2014 04 26    14 44 50.5 -01 42 30   0.03125 1.0365   165.9    13.7    19.7
    2014 04 27    14 58 03.7 -00 26 44   0.02877 1.0340   163.3    16.3    19.6
    ...
    2014 05 03    17 23 59.3 +12 15 01   0.01844 1.0201   130.7    48.5    19.6
    ...
    2014 05 11    21 37 33.1 +20 04 34   0.02672 1.0046    77.9   100.7    22.2
    ...
    2014 05 26    23 35 42.6 +16 32 40   0.06640 0.9863    64.6   111.9    24.8
    
    A. U. Tomatic                (C) Copyright 2014 MPC           M.P.E.C. 2014-H47
    

    Read MPEC 2014-H46 Read MPEC 2014-H48


    MPEC number:

    Enter an MPEC number in one of the following forms:

    • 1997-B01 (the full form)
    • J97B01 (the packed version of the full form)
    • B01 (the abbreviated form)